[[{"header":{"parameterUnit":"m.s-1","parameterCategory":1,"la1":30.2991,"la2":30.254,"lo1":-89.0895,"lo2":-89.0444,"dy":0.0017,"dx":0.0017,"nx":28,"ny":28,"refTime":"2023-10-16T03:00:00:Z","depth":0,"parameterNumber":2,"parameterNumberName":"U-component_of_WINDS"},"data":[0,0,0,0,0,0,0,0,0,0,0,0,0,0,0,0,0,0,0,0,0,0,0,0,0,0,0,0,0,0,0,0,0,0,0,0,0,0,0,0,0,0,0,0,0,0,0,0,0,0,0,0,0,0,0,0,0,0,1.5841,1.584,0,1.5764,1.5763,1.5762,1.5736,1.5736,1.5736,1.5737,1.5652,1.565,1.5647,0,0,0,0,0,0,0,0,0,0,0,0,0,1.5959,1.5957,1.5841,1.584,1.5839,1.5764,1.5763,1.5762,1.5736,1.5736,1.5736,1.5737,1.5653,1.565,1.5647,0,0,0,0,0,0,0,0,0,0,0,0,0,1.5897,1.5956,1.5841,1.5817,1.5814,1.5764,1.5763,1.5762,1.5736,1.5736,1.5736,1.5737,1.5654,1.565,1.5647,1.5614,0,0,1.5635,1.5633,0,0,0,0,0,0,0,0,1.5901,1.5893,1.5821,1.5819,1.5815,1.576,1.5774,1.5712,1.5735,1.5765,1.5737,1.5737,1.5687,1.5681,1.5665,1.561,1.5606,1.5635,1.5632,1.5631,1.563,0,0,0,0,0,0,0,1.5905,1.5896,1.581,1.582,1.5817,1.5808,1.58,1.5762,1.5724,1.5763,1.5761,1.5752,1.5686,1.5669,1.5663,1.5605,1.5635,1.5631,1.5629,1.5627,1.5516,1.5515,0,0,0,0,0,0,1.5914,1.59,1.5813,1.5808,1.586,1.5805,1.5796,1.5777,1.5725,1.5717,1.5752,1.5751,1.5675,1.5667,1.566,1.5616,1.5631,1.5627,1.5625,1.5517,1.5516,1.5515,0,0,0,0,0,0,1.5917,1.5907,1.5816,1.5853,1.5841,1.5803,1.5782,1.5775,1.5759,1.5717,1.5709,1.5742,1.5675,1.5665,1.5625,1.5613,1.5625,1.5622,1.5518,1.5516,1.5516,1.553,0,0,0,0,0,0,1.592,1.5908,1.5896,1.5853,1.5839,1.5784,1.5781,1.5774,1.5753,1.5751,1.5705,1.5698,1.5675,1.5631,1.5621,1.5608,1.5619,1.5518,1.5517,1.5516,1.553,1.553,1.5529,0,0,0,0,0,1.5925,1.5903,1.5896,1.5886,1.5825,1.5784,1.5776,1.5751,1.5752,1.5739,1.5712,1.57,1.5616,1.5627,1.5616,1.5601,1.5519,1.5517,1.5516,1.5531,1.553,1.5529,0,0,0,0,0,0,1.5944,1.5897,1.5889,1.5853,1.5823,1.578,1.5763,1.5751,1.5718,1.5718,1.5687,1.5677,1.5639,1.5616,1.5629,1.5566,1.5567,1.5563,1.5582,1.5581,1.558,1.5585,1.5616,0,0,0,0,0,1.5944,1.5917,1.5877,1.5848,1.5834,1.5801,1.5782,1.5766,1.5733,1.5719,1.5689,1.5656,1.5622,1.56,1.5567,1.5528,1.5516,1.5512,1.5511,1.5511,1.5507,1.5482,1.548,1.551,1.551,1.551,0,0,1.5944,1.5915,1.5899,1.5851,1.5826,1.5797,1.579,1.576,1.5737,1.5714,1.5674,1.5651,1.5612,1.5572,1.5552,1.5552,1.5496,1.5509,1.5509,1.5505,1.5481,1.5478,1.5475,1.5509,1.5509,1.551,0,0,1.5928,1.5904,1.5877,1.5853,1.5815,1.5793,1.5787,1.5745,1.5729,1.569,1.5672,1.5643,1.5586,1.5558,1.5536,1.5509,1.5496,1.5499,1.5495,1.5471,1.5469,1.5466,1.5455,1.5451,1.5496,1.5496,1.5496,0,1.5932,1.5888,1.5865,1.5835,1.5813,1.5793,1.5765,1.5741,1.5694,1.5678,1.5679,1.5606,1.5578,1.553,1.5524,1.5508,1.5497,1.5504,1.5471,1.5469,1.5466,1.5455,1.545,1.5497,1.5497,1.5497,1.5497,0,1.5894,1.5864,1.5846,1.5803,1.578,1.5751,1.572,1.5699,1.5685,1.5662,1.5621,1.5587,1.5545,1.5533,1.5518,1.5482,1.5483,1.5478,1.5478,1.5464,1.5453,1.5448,1.5498,1.5497,1.5497,1.5497,0,0,1.5887,1.5831,1.5825,1.5804,1.5761,1.5736,1.5706,1.5667,1.5648,1.5616,1.5588,1.554,1.5535,1.551,1.5492,1.5471,1.545,1.5468,1.5467,1.5464,1.5405,1.5408,1.5404,1.5441,1.544,1.544,1.5408,0,1.5864,1.581,1.5788,1.5743,1.5714,1.5694,1.5666,1.5636,1.5614,1.5584,1.5559,1.5525,1.5521,1.5506,1.5485,1.5457,1.5437,1.5459,1.5412,1.541,1.5421,1.5398,1.5401,1.5373,1.5404,1.5403,1.5402,0,1.5831,1.58,1.5753,1.5712,1.5699,1.5675,1.5636,1.5609,1.5573,1.5558,1.5531,1.5514,1.5478,1.5482,1.5431,1.5446,1.5425,1.5408,1.5407,1.54,1.5404,1.5389,1.5364,1.5359,1.5395,1.5396,1.5396,0,1.5829,1.5775,1.5739,1.5723,1.5675,1.5658,1.5637,1.5601,1.5579,1.5545,1.553,1.5492,1.547,1.544,1.5412,1.5418,1.5363,1.5365,1.5347,1.5348,1.5335,1.5336,1.5304,1.5325,1.5325,1.5325,1.5325,0,1.5805,1.5776,1.5738,1.5716,1.5682,1.5656,1.5622,1.56,1.5568,1.554,1.552,1.5493,1.5459,1.5427,1.5404,1.5364,1.5355,1.534,1.5334,1.5341,1.5342,1.5325,1.5326,1.5324,1.5324,1.5325,1.5325,0,1.5796,1.577,1.5729,1.5687,1.5676,1.5653,1.5616,1.5592,1.557,1.5533,1.5523,1.5486,1.5448,1.5417,1.5366,1.5351,1.5308,1.5303,1.5321,1.5317,1.5301,1.5302,1.5256,1.5247,1.5276,1.5275,1.5275,0,1.5782,1.576,1.5715,1.5696,1.5675,1.5644,1.5621,1.5593,1.557,1.5527,1.5508,1.5468,1.5435,1.5373,1.534,1.5301,1.5293,1.5279,1.5286,1.5293,1.529,1.5291,1.5287,1.5278,1.5278,1.5278,1.5277,0,1.5759,1.5747,1.5716,1.568,1.5653,1.5623,1.5592,1.5577,1.5543,1.5518,1.5479,1.5453,1.5401,1.5361,1.5318,1.5293,1.5279,1.5276,1.5269,1.5275,1.5285,1.5277,1.5316,1.5276,1.5277,1.5277,1.5277,1.5277,1.5745,1.5724,1.5689,1.5655,1.5629,1.56,1.5576,1.555,1.5518,1.5475,1.546,1.5419,1.5381,1.5322,1.5298,1.5264,1.5263,1.5254,1.5251,1.5249,1.5248,1.5293,1.5256,1.5256,1.5256,1.5256,1.5256,0,1.5719,1.5696,1.5665,1.5623,1.5595,1.5586,1.5551,1.5528,1.5493,1.546,1.5428,1.5381,1.5342,1.5307,1.5265,1.5244,1.5236,1.5234,1.5234,1.5228,1.5253,1.5262,1.5241,1.5241,1.5241,1.5241,1.5241,1.5241,1.5703,1.5665,1.5649,1.5597,1.5574,1.5535,1.5515,1.5488,1.5461,1.5411,1.5379,1.5357,1.5322,1.5277,1.524,1.523,1.5214,1.5214,1.5202,1.5225,1.5227,1.5229,1.5237,1.5211,1.5211,1.518,1.5179,1.5179]},{"header":{"parameterUnit":"m.s-1","parameterCategory":1,"la1":30.2991,"la2":30.254,"lo1":-89.0895,"lo2":-89.0444,"dy":0.0017,"dx":0.0017,"nx":28,"ny":28,"refTime":"2023-10-16T03:00:00:Z","depth":0,"parameterNumber":3,"parameterNumberName":"V-component_of_WINDS"},"data":[0,0,0,0,0,0,0,0,0,0,0,0,0,0,0,0,0,0,0,0,0,0,0,0,0,0,0,0,0,0,0,0,0,0,0,0,0,0,0,0,0,0,0,0,0,0,0,0,0,0,0,0,0,0,0,0,0,0,-4.4574,-4.4576,0,-4.4768,-4.477,-4.4773,-4.4714,-4.471,-4.4706,-4.4702,-4.4898,-4.4906,-4.4915,0,0,0,0,0,0,0,0,0,0,0,0,0,-4.4148,-4.4156,-4.4573,-4.4576,-4.4578,-4.4768,-4.4771,-4.4773,-4.4715,-4.471,-4.4705,-4.4701,-4.4895,-4.4905,-4.4916,0,0,0,0,0,0,0,0,0,0,0,0,0,-4.4337,-4.4159,-4.4573,-4.4572,-4.4574,-4.4767,-4.4771,-4.4774,-4.4716,-4.471,-4.4704,-4.4698,-4.4891,-4.4904,-4.4917,-4.5122,0,0,-4.4959,-4.4964,0,0,0,0,0,0,0,0,-4.4326,-4.4352,-4.457,-4.4573,-4.4575,-4.4711,-4.4692,-4.489,-4.4718,-4.4662,-4.4702,-4.4695,-4.484,-4.4857,-4.4907,-4.5131,-4.5139,-4.496,-4.4968,-4.4974,-4.4978,0,0,0,0,0,0,0,-4.4313,-4.4344,-4.465,-4.4573,-4.4576,-4.4561,-4.4581,-4.4729,-4.4783,-4.4666,-4.4663,-4.4687,-4.484,-4.4894,-4.4911,-4.5142,-4.4959,-4.4971,-4.498,-4.4985,-4.5545,-4.5551,0,0,0,0,0,0,-4.4299,-4.4333,-4.4644,-4.4656,-4.4433,-4.4574,-4.4596,-4.4673,-4.4781,-4.4791,-4.4692,-4.4683,-4.4874,-4.4896,-4.4918,-4.5166,-4.4974,-4.4986,-4.4994,-4.5538,-4.5546,-4.5554,0,0,0,0,0,0,-4.429,-4.4327,-4.4636,-4.4494,-4.4532,-4.4588,-4.4675,-4.468,-4.4734,-4.48,-4.4809,-4.4737,-4.487,-4.4899,-4.5072,-4.5171,-4.4992,-4.5005,-4.553,-4.5541,-4.555,-4.5662,0,0,0,0,0,0,-4.4278,-4.4324,-4.4403,-4.4496,-4.454,-4.4789,-4.4681,-4.4689,-4.4758,-4.4749,-4.4845,-4.4855,-4.4868,-4.5052,-4.5086,-4.5187,-4.5015,-4.5521,-4.5535,-4.5547,-4.565,-4.5675,-4.5696,0,0,0,0,0,-4.4263,-4.4426,-4.4408,-4.4446,-4.464,-4.4795,-4.482,-4.4832,-4.4766,-4.4846,-4.4888,-4.4852,-4.5155,-4.5071,-4.5107,-4.5214,-4.5515,-4.5531,-4.5546,-4.5639,-4.567,-4.5696,0,0,0,0,0,0,-4.4342,-4.4438,-4.4419,-4.4617,-4.4699,-4.4785,-4.4885,-4.4864,-4.4964,-4.4951,-4.4961,-4.4983,-4.5161,-4.5204,-4.5109,-4.5418,-4.5325,-4.5349,-4.5384,-4.5413,-4.5436,-4.5423,-4.5026,0,0,0,0,0,-4.4383,-4.4501,-4.4578,-4.4746,-4.4788,-4.483,-4.4897,-4.49,-4.4984,-4.5018,-4.5073,-4.5155,-4.5268,-4.5343,-4.5451,-4.5655,-4.5676,-4.5747,-4.577,-4.5789,-4.5809,-4.5922,-4.5954,-4.5604,-4.5604,-4.5604,0,0,-4.4468,-4.4535,-4.4609,-4.4763,-4.4827,-4.4949,-4.4859,-4.4991,-4.5082,-4.5037,-4.5206,-4.5249,-4.534,-4.5531,-4.5617,-4.5572,-4.591,-4.5808,-4.5823,-4.5833,-4.5941,-4.5974,-4.6003,-4.5614,-4.5612,-4.5611,0,0,-4.4685,-4.4748,-4.4895,-4.496,-4.5058,-4.5085,-4.512,-4.5211,-4.5238,-4.5407,-4.5377,-4.5483,-4.5679,-4.5746,-4.5806,-4.605,-4.602,-4.6084,-4.6206,-4.6316,-4.6343,-4.6368,-4.6456,-4.6488,-4.6104,-4.6104,-4.6104,0,-4.4778,-4.4962,-4.4973,-4.5109,-4.5178,-4.5144,-4.5293,-4.5356,-4.5483,-4.5531,-4.5479,-4.5725,-4.5784,-4.599,-4.605,-4.6099,-4.614,-4.6074,-4.6339,-4.6363,-4.6386,-4.6471,-4.6504,-4.6111,-4.6111,-4.611,-4.6109,0,-4.5072,-4.52,-4.5307,-4.5433,-4.5514,-4.5655,-4.5687,-4.5767,-4.5762,-4.5795,-4.5967,-4.6037,-4.616,-4.6208,-4.6204,-4.6415,-4.6384,-4.6336,-4.6243,-4.6427,-4.6506,-4.6539,-4.6122,-4.6119,-4.6117,-4.6115,0,0,-4.5346,-4.5476,-4.5516,-4.5573,-4.5678,-4.5777,-4.5917,-4.6038,-4.6107,-4.6196,-4.6314,-4.648,-4.6436,-4.6504,-4.6507,-4.6603,-4.6794,-4.6543,-4.6545,-4.6589,-4.7031,-4.7068,-4.7105,-4.6774,-4.6781,-4.6786,-4.7024,0,-4.5573,-4.5822,-4.5835,-4.606,-4.6179,-4.6149,-4.627,-4.6348,-4.6382,-4.6486,-4.6523,-4.6642,-4.6574,-4.6615,-4.6709,-4.6751,-4.6883,-4.6733,-4.6884,-4.6889,-4.6864,-4.7147,-4.7186,-4.7408,-4.7055,-4.706,-4.7064,0,-4.5873,-4.5973,-4.621,-4.63,-4.635,-4.646,-4.6572,-4.6673,-4.676,-4.6778,-4.6854,-4.6844,-4.6987,-4.6888,-4.7085,-4.6983,-4.7045,-4.7075,-4.7084,-4.71,-4.6989,-4.7171,-4.7478,-4.7513,-4.7112,-4.7108,-4.7105,0,-4.605,-4.6244,-4.6412,-4.6461,-4.657,-4.6648,-4.6696,-4.6777,-4.6849,-4.6947,-4.6994,-4.7107,-4.7169,-4.7256,-4.7276,-4.7202,-4.7473,-4.7376,-4.7492,-4.7492,-4.7552,-4.7548,-4.7875,-4.7589,-4.7589,-4.7588,-4.7587,0,-4.6304,-4.6451,-4.6493,-4.6596,-4.676,-4.6773,-4.6934,-4.6977,-4.705,-4.716,-4.714,-4.7243,-4.7263,-4.7371,-4.7387,-4.7549,-4.7576,-4.7594,-4.7597,-4.7598,-4.7596,-4.7639,-4.7625,-4.7597,-4.7595,-4.7593,-4.7592,0,-4.6531,-4.6565,-4.6746,-4.6834,-4.686,-4.6977,-4.7051,-4.715,-4.7181,-4.7322,-4.7355,-4.7404,-4.753,-4.7559,-4.7707,-4.7718,-4.791,-4.7897,-4.7882,-4.7881,-4.7997,-4.7986,-4.8365,-4.8416,-4.8095,-4.8098,-4.81,0,-4.6692,-4.6805,-4.6905,-4.6979,-4.7031,-4.7149,-4.7224,-4.7241,-4.7319,-4.7427,-4.7513,-4.7637,-4.7737,-4.7939,-4.7988,-4.8102,-4.8092,-4.8217,-4.8109,-4.8106,-4.8096,-4.809,-4.8102,-4.8238,-4.8241,-4.8244,-4.8246,0,-4.6974,-4.6986,-4.7094,-4.721,-4.73,-4.7391,-4.7477,-4.7538,-4.7567,-4.7656,-4.7785,-4.7863,-4.8016,-4.814,-4.8254,-4.8303,-4.8281,-4.828,-4.8313,-4.8315,-4.8303,-4.8313,-4.794,-4.8271,-4.8269,-4.8267,-4.8266,-4.8265,-4.7175,-4.7274,-4.7361,-4.7483,-4.755,-4.7632,-4.7729,-4.7774,-4.7882,-4.801,-4.8012,-4.8154,-4.8238,-4.839,-4.8445,-4.8556,-4.8517,-4.8565,-4.8577,-4.8589,-4.8601,-4.8284,-4.8576,-4.8576,-4.8575,-4.8574,-4.8574,0,-4.7457,-4.7512,-4.7624,-4.7747,-4.7843,-4.7814,-4.7908,-4.7991,-4.8116,-4.8197,-4.8297,-4.8446,-4.8566,-4.8623,-4.8742,-4.8819,-4.8812,-4.885,-4.8845,-4.8857,-4.8628,-4.8588,-4.8854,-4.8854,-4.8854,-4.8854,-4.8854,-4.8854,-4.7616,-4.7783,-4.7805,-4.8005,-4.8058,-4.8198,-4.8255,-4.833,-4.8395,-4.8563,-4.8663,-4.87,-4.8772,-4.8896,-4.9004,-4.9018,-4.9063,-4.9107,-4.9116,-4.8901,-4.8873,-4.8846,-4.8809,-4.9116,-4.9117,-4.9336,-4.9338,-4.934]}]]